METAR Formatted Surface Weather Observation
Issued by NWS

Home | Current Version | Previous Version | Text Only | Print | Product List | Glossary On
Versions: 1 2 3 4 5 6 7 8 9 10 11 12 13 14 15 16 17 18 19 20 21 22 23 24 25 26 27 28
506
SAUS45 KSLC 211031
MTRU16
METAR KU16 210958Z AUTO 18026G36KT 10SM CLR 17/02 A2995
RMK AO2 PK WND 17037/0936 SLP767 T01670022 $



USA.gov is the U.S. government's official web portal to all federal, state and local government web resources and services.